TimeEST,TemperatureF,Dew PointF,Humidity,Sea Level PressureIn,VisibilityMPH,Wind Direction,Wind SpeedMPH,Gust SpeedMPH,PrecipitationIn,Events,Conditions,WindDirDegrees,DateUTC
12:26 AM,15.8,12.2,86,29.71,0.5,North,23.0,34.5,0.00,Fog-Snow,Light Snow,10,2013-02-09 05:26:00
12:53 AM,16.0,12.9,88,29.75,0.2,North,20.7,40.3,0.01,Fog-Snow,Snow,360,2013-02-09 05:53:00
1:15 AM,15.8,12.2,86,29.67,0.5,North,21.9,-,0.01,Fog-Snow,Snow,350,2013-02-09 06:15:00
1:53 AM,16.0,12.0,84,29.75,0.5,North,20.7,28.8,0.02,Fog-Snow,Snow,360,2013-02-09 06:53:00
2:13 AM,15.8,12.2,86,29.69,0.2,North,19.6,26.5,0.00,Fog-Snow,Heavy Snow,350,2013-02-09 07:13:00
2:37 AM,15.8,12.2,86,29.69,0.2,North,29.9,36.8,0.02,Fog-Snow,Heavy Snow,350,2013-02-09 07:37:00
2:53 AM,16.0,12.0,84,29.75,0.2,North,26.5,38.0,0.04,Fog-Snow,Heavy Snow,350,2013-02-09 07:53:00
3:53 AM,17.1,12.9,84,29.74,0.2,North,23.0,35.7,0.05,Fog-Snow,Heavy Snow,350,2013-02-09 08:53:00
4:53 AM,19.0,15.1,85,29.73,0.2,North,26.5,43.7,0.07,Fog-Snow,Heavy Snow,350,2013-02-09 09:53:00
5:17 AM,19.4,15.8,86,29.65,0.5,NNW,21.9,33.4,0.02,Fog-Snow,Snow,340,2013-02-09 10:17:00
5:53 AM,19.0,16.0,88,29.71,0.5,NNW,20.7,28.8,0.04,Fog-Snow,Snow,330,2013-02-09 10:53:00
6:09 AM,19.4,15.8,86,29.65,0.2,NNW,20.7,27.6,0.02,Fog-Snow,Snow,330,2013-02-09 11:09:00
6:22 AM,19.4,15.8,86,29.66,0.5,NNW,23.0,29.9,0.03,Fog-Snow,Snow,330,2013-02-09 11:22:00
6:53 AM,19.0,15.1,85,29.75,0.5,NNW,15.0,24.2,0.06,Fog-Snow,Snow,340,2013-02-09 11:53:00
7:53 AM,17.1,12.9,84,29.78,0.5,NNW,18.4,29.9,0.03,Fog-Snow,Snow,340,2013-02-09 12:53:00
8:53 AM,16.0,12.0,84,29.81,0.5,NNW,17.3,28.8,0.03,Fog-Snow,Snow,340,2013-02-09 13:53:00
8:58 AM,15.8,12.2,86,29.75,0.2,NNW,18.4,25.3,0.00,Fog-Snow,Heavy Snow,330,2013-02-09 13:58:00
9:19 AM,15.8,12.2,86,29.76,0.5,NNW,21.9,32.2,0.02,Fog-Snow,Snow,340,2013-02-09 14:19:00
9:25 AM,15.8,12.2,86,29.76,0.2,NNW,16.1,32.2,0.02,Fog-Snow,Heavy Snow,340,2013-02-09 14:25:00
9:53 AM,16.0,10.9,81,29.84,0.5,NNW,18.4,31.1,0.03,Fog-Snow,Snow,330,2013-02-09 14:53:00
10:19 AM,15.8,10.4,79,29.79,0.2,NNW,26.5,33.4,0.00,Fog-Snow,Heavy Snow,340,2013-02-09 15:19:00
10:43 AM,15.8,10.4,79,29.80,0.5,NNW,18.4,34.5,0.01,Fog-Snow,Snow,330,2013-02-09 15:43:00
10:50 AM,15.8,10.4,79,29.80,0.8,NNW,21.9,31.1,0.01,Snow,Light Snow,330,2013-02-09 15:50:00
10:53 AM,16.0,10.0,77,29.87,0.8,NNW,20.7,31.1,0.01,Snow,Light Snow,330,2013-02-09 15:53:00
11:45 AM,17.6,8.6,68,29.82,1.0,NNW,23.0,32.2,0.00,Snow,Light Snow,330,2013-02-09 16:45:00
11:53 AM,18.0,9.0,68,29.88,0.8,NNW,24.2,35.7,0.00,Snow,Light Snow,330,2013-02-09 16:53:00
12:23 PM,17.6,8.6,68,29.83,0.5,NNW,26.5,39.1,0.00,Snow,Snow,340,2013-02-09 17:23:00
12:31 PM,17.6,8.6,68,29.83,0.8,NNW,19.6,38.0,0.00,Snow,Light Snow,330,2013-02-09 17:31:00
12:38 PM,17.6,8.6,68,29.83,1.0,NNW,21.9,36.8,0.00,Snow,Light Snow,330,2013-02-09 17:38:00
12:43 PM,17.6,8.6,68,29.84,0.8,NNW,27.6,39.1,0.00,Snow,Light Snow,340,2013-02-09 17:43:00
12:53 PM,18.0,9.0,68,29.91,0.5,NNW,24.2,36.8,0.00,Snow,Snow,330,2013-02-09 17:53:00
1:37 PM,17.6,6.8,63,29.86,3.0,NNW,24.2,36.8,0.00,Snow,Blowing Snow,330,2013-02-09 18:37:00
1:53 PM,19.0,6.1,57,29.94,10.0,NNW,17.3,34.5,0.00,,Overcast,330,2013-02-09 18:53:00
2:53 PM,19.0,8.1,62,29.98,10.0,NNW,27.6,35.7,0.00,Snow,Light Snow,340,2013-02-09 19:53:00
3:53 PM,19.9,7.0,57,30.02,6.0,NNW,25.3,38.0,0.00,Snow,Blowing Snow,330,2013-02-09 20:53:00
4:53 PM,19.9,7.0,57,30.05,10.0,NNW,23.0,34.5,N/A,,Mostly Cloudy,340,2013-02-09 21:53:00
5:53 PM,19.0,6.1,57,30.10,10.0,NNW,23.0,31.1,N/A,,Partly Cloudy,330,2013-02-09 22:53:00
6:53 PM,18.0,3.9,54,30.14,10.0,NNW,20.7,34.5,N/A,,Clear,330,2013-02-09 23:53:00
7:53 PM,17.1,3.0,54,30.16,10.0,NNW,20.7,26.5,N/A,,Clear,330,2013-02-10 00:53:00
8:53 PM,15.1,1.0,54,30.19,10.0,NW,20.7,26.5,N/A,,Clear,320,2013-02-10 01:53:00
9:53 PM,15.1,-0.0,51,30.21,10.0,NW,11.5,21.9,N/A,,Clear,310,2013-02-10 02:53:00
10:53 PM,15.1,-0.9,49,30.22,10.0,NNW,12.7,19.6,N/A,,Clear,330,2013-02-10 03:53:00
11:53 PM,15.1,-2.0,47,30.25,10.0,NW,10.4,-,N/A,,Clear,320,2013-02-10 04:53:00